星链-4453 (STARLINK-4453 )

导读

STARLINK-4453是美国于2022年8月12日发射的星链卫星,属于SpaceX星链互联网星座项目,旨在为全球提供高速低延迟宽带互联网服务。它部署在近地轨道,是星链星座规模化组网的组成部分之一,服务覆盖偏远地区等网络基础设施薄弱区域,支撑全球互联接入的目标实现。

Basic Information
目录编号:
53497
目录名称:
STARLINK-4453
国际标识:
2022-099AJ
轨道中心:
EARTH
卫星名称:
星链-4453
卫星全名:
星链-4453 (STARLINK-4453 )
卫星状态:
在轨 (已飞行1405 天)
发射日期:
2022-08-12 UTC
国别 :
美国 (US)
星等 :
--
Orbit Information
数据来源 国际轨道数据 AOE轨道数据
星历时间 2026-06-17T05:38:09+0800
15小时前
查看轨道信息
2026-06-11T05:00:00+0800
6天前
查看轨道信息
半长轴 6927.643km 6927.63km
偏心率 0.0001046 0.0001878
轨道倾角 97.351° 97.380°
近地点辐角 156.642° 158.178°
升交点赤经 286.868° 281.116°
平近点角 203.486° 316.942°
近地点 548.781km 548.191km
远地点 550.231km 550.795km
周期 95.640分钟 95.639分钟
每日圈数 15.056519 15.056561
Detailed Information
固有亮度:
5
最大亮度:
2.5
卫星平台:
Starlink v1.5
覆盖范围:
全球
运营商:
太空探索技术公司
运营商所在国:
美国
制造商(研发单位):
太空探索技术公司
制造商所在国:
美国
使用方式:
暂无
Satellite Introduction
星链(Starlink)计划是由太空探索技术公司(SpaceX)提出的一个巨型低轨卫星互联网星座项目,计划在2019年至2024年间在太空搭建由约1.2万颗卫星组成的“星链”网络,其中1584颗将部署在地球上空550千米处的近地轨道,并从2020年开始工作。该卫星仍在工作。
2D Orbit Map
3D Orbit Map
Orbit Altitude Analysis Chart
Orbit Inclination Analysis Chart
Orbit Comprehensive Analysis Chart
View Comprehensive Chart